Content
SEND FEEDBACK

Daily
Averages
Monthly
Summary
United States of America

MACKSVILLE, KANSAS


Home > North America > United States > Kansas
Elevation: 1990 feet     Latitude: 38 04N     Longitude: 098 55W

WEATHER
 
SELECT A DAY
Number of Records: 451,456;   Date Range: 1/1/95 - 8/30/14
 
SHARE

PRINT THIS DATA

[ ← Previous Day ]
WEATHER ALMANAC - JANUARY 31, 2013
[ Next Day → ]
[ °C ]   °F
Weather ElementAverageHighLow
Temperature22.6 °F26.6 °F (7:15 am)12.2 °F (8:15 pm)
Dewpoint14.4 °F19.4 °F (7:15 am)6.8 °F (7:15 pm)
Humidity71 %80 % (12:35 am)59 % (2:55 pm)
Barometer29.71 in30.38 in (8:35 pm) (7:00 pm)
Wind Speed8.9 mph18.4 mph (11:55 am)
Wind Gust20.7 mph (1:35 pm)
Weather ElementAverage
Visibility10 mi
Wind DirectionESE (118.2 °)

Weather ElementTotal
Precipitation---
Heating Degree Days45.6 (Base 65)
Averaged from 67 records on January 31, 2013
WEATHER CONDITIONS BREAKOUT
WIND DIRECTION BREAKOUT
WEATHER BY HOUR - JANUARY 31, 2013
[ °C ]   °F
Local TimeTemperatureDewpointHumidityBarometerVisibilityWind DirectionWind SpeedGust SpeedPrecipitationEventsConditions
12:35 AM21.2 °F15.8 °F80 %29.93 in10.0 miWSW (240°)10.4 mphClear
12:55 AM21.2 °F15.8 °F80 %29.93 in10.0 miWSW (250°)10.4 mphClear
1:15 AM23.0 °F15.8 °F74 %29.92 in10.0 miWSW (240°)11.5 mphClear
1:35 AM24.8 °F15.8 °F69 %29.92 in10.0 miWSW (250°)10.4 mphClear
1:55 AM24.8 °F15.8 °F69 %29.93 in10.0 miWSW (250°)6.9 mphClear
2:15 AM24.8 °F17.6 °F74 %29.94 in10.0 miWest (270°)10.4 mphClear
2:35 AM24.8 °F17.6 °F74 %29.94 in10.0 miWest (280°)12.7 mphClear
2:55 AM24.8 °F15.8 °F69 %29.94 in10.0 miWest (260°)9.2 mphClear
3:15 AM23.0 °F15.8 °F74 %29.95 in10.0 miWest (270°)8.1 mphClear
3:35 AM24.8 °F15.8 °F69 %29.96 in10.0 miNW (310°)8.1 mphClear
3:55 AM21.2 °F14.0 °F74 %29.96 in10.0 miSSW (210°)6.9 mphPartly Cloudy
4:15 AM23.0 °F15.8 °F74 %29.96 in10.0 miWSW (240°)8.1 mphScattered Clouds
4:35 AM21.2 °F14.0 °F74 %29.96 in10.0 miSW (230°)6.9 mphClear
4:55 AM23.0 °F17.6 °F80 %29.96 in10.0 miWest (260°)5.8 mphMostly Cloudy
5:15 AM24.8 °F15.8 °F69 %29.95 in10.0 miCalmMostly Cloudy
5:35 AM23.0 °F15.8 °F74 %29.96 in10.0 miWest (270°)8.1 mphPartly Cloudy
5:55 AM24.8 °F17.6 °F74 %29.96 in10.0 miNW (310°)5.8 mphClear
6:15 AM24.8 °F17.6 °F74 %29.96 in10.0 miNW (310°)8.1 mphClear
6:35 AM23.0 °F15.8 °F74 %29.97 in10.0 miNW (310°)5.8 mphClear
6:55 AM24.8 °F17.6 °F74 %29.97 in10.0 miNorth (10°)3.5 mphPartly Cloudy
7:15 AM26.6 °F19.4 °F74 %29.98 in10.0 miNorth (10°)3.5 mphClear
7:35 AM26.6 °F19.4 °F74 %30.00 in10.0 miNNE (30°)3.5 mphPartly Cloudy
7:55 AM26.6 °F19.4 °F74 %30.02 in10.0 miNorth (350°)6.9 mphScattered Clouds
8:15 AM26.6 °F19.4 °F74 %30.05 in10.0 miNorth (350°)9.2 mphOvercast
8:35 AM26.6 °F19.4 °F74 %30.07 in10.0 miNNE (20°)10.4 mphOvercast
8:55 AM26.6 °F19.4 °F74 %30.07 in10.0 miNE (40°)13.8 mphOvercast
9:15 AM26.6 °F19.4 °F74 %30.10 in10.0 miNE (40°)13.8 mphOvercast
9:35 AM24.8 °F17.6 °F74 %30.13 in10.0 miNE (40°)9.2 mphOvercast
9:55 AM24.8 °F17.6 °F74 %30.15 in10.0 miNE (40°)8.1 mphOvercast
10:15 AM24.8 °F15.8 °F69 %30.17 in10.0 miNNE (30°)12.7 mphOvercast
10:35 AM24.8 °F15.8 °F69 %30.17 in10.0 miNE (40°)9.2 mphMostly Cloudy
10:55 AM24.8 °F15.8 °F69 %30.19 in10.0 miNNE (30°)11.5 mphScattered Clouds
11:15 AM26.6 °F15.8 °F64 %30.20 in10.0 miNE (40°)11.5 mphClear
11:35 AM24.8 °F15.8 °F69 %30.21 in10.0 miNNE (20°)15.0 mphClear
11:55 AM26.6 °F15.8 °F64 %30.22 in10.0 miNNE (20°)18.4 mphClear
12:15 PM26.6 °F17.6 °F69 %30.24 in10.0 miNNE (20°)18.4 mphClear
12:35 PM26.6 °F17.6 °F69 %30.24 in10.0 miNNE (30°)17.3 mphClear
12:55 PM26.6 °F15.8 °F64 %10.0 miNNE (20°)15.0 mphPartly Cloudy
1:15 PM26.6 °F17.6 °F69 %30.24 in10.0 miNNE (20°)17.3 mphMostly Cloudy
1:35 PM24.8 °F15.8 °F69 %30.24 in10.0 miNNE (20°)16.1 mph20.7 mphOvercast
2:15 PM24.8 °F15.8 °F69 %30.26 in10.0 miNE (40°)15.0 mphOvercast
2:35 PM24.8 °F15.8 °F69 %30.26 in10.0 miNE (40°)15.0 mphOvercast
2:55 PM24.8 °F12.2 °F59 %30.26 in10.0 miNNE (30°)13.8 mphOvercast
3:15 PM24.8 °F14.0 °F64 %30.26 in10.0 miNNE (30°)15.0 mphOvercast
3:35 PM24.8 °F12.2 °F59 %30.28 in10.0 miNNE (20°)13.8 mphMostly Cloudy
3:55 PM24.8 °F14.0 °F64 %30.28 in10.0 miNE (40°)13.8 mphScattered Clouds
4:15 PM23.0 °F12.2 °F63 %30.29 in10.0 miNE (40°)10.4 mphMostly Cloudy
4:35 PM23.0 °F12.2 °F63 %30.30 in10.0 miNE (40°)9.2 mphScattered Clouds
4:55 PM23.0 °F12.2 °F63 %30.29 in10.0 miNE (40°)10.4 mphClear
5:15 PM21.2 °F12.2 °F68 %30.30 in10.0 miNE (40°)9.2 mphClear
5:35 PM21.2 °F10.4 °F63 %30.31 in10.0 miNNE (30°)6.9 mphClear
5:55 PM19.4 °F10.4 °F68 %30.32 in10.0 miNE (50°)5.8 mphClear
6:15 PM19.4 °F10.4 °F68 %30.34 in10.0 miCalmClear
6:35 PM17.6 °F8.6 °F68 %30.34 in10.0 miCalmClear
7:15 PM15.8 °F6.8 °F68 %30.36 in10.0 miCalmClear
7:35 PM14.0 °F8.6 °F79 %30.36 in10.0 miSSE (150°)5.8 mphClear
7:55 PM14.0 °F8.6 °F79 %30.35 in10.0 miSSE (150°)4.6 mphClear
8:15 PM12.2 °F6.8 °F79 %30.37 in10.0 miCalmClear
8:35 PM17.6 °F10.4 °F73 %30.38 in10.0 miEast (100°)3.5 mphPartly Cloudy
8:55 PM15.8 °F10.4 °F79 %30.38 in10.0 miCalmClear
9:15 PM14.0 °F6.8 °F73 %30.38 in10.0 miSE (140°)3.5 mphScattered Clouds
9:35 PM15.8 °F8.6 °F73 %30.37 in10.0 miSE (140°)3.5 mphOvercast
10:15 PM17.6 °F10.4 °F73 %30.36 in10.0 miESE (120°)6.9 mphOvercast
10:35 PM17.6 °F8.6 °F68 %30.36 in10.0 miSSE (160°)6.9 mphOvercast
10:55 PM17.6 °F10.4 °F73 %30.38 in10.0 miSouth (180°)9.2 mphOvercast
11:15 PM17.6 °F10.4 °F73 %30.37 in10.0 miSouth (180°)8.1 mphOvercast
11:35 PM17.6 °F10.4 °F73 %30.37 in10.0 miSouth (180°)6.9 mphOvercast
Hourly data recorded from KGBD, located miles away from Macksville, Kansas







STORIES FROM OUR PARTNERS